| time (UTC) | temp F | wind direction | speed MPH | gust MPH | rain 1hr in | rain 24hr in | rain mn in | humidity % | barometer mb |
| 20260510160223 | 80 | 17 | 2.0 | 4.0 | 0.00 | 0.00 | 0.00 | 40 | 1016.8 |
| 20260510155716 | 80 | 88 | 2.0 | 4.0 | 0.00 | 0.00 | 0.00 | 40 | 1016.9 |
| 20260510155211 | 80 | 91 | 2.0 | 6.0 | 0.00 | 0.00 | 0.00 | 41 | 1016.8 |
| 20260510154704 | 79 | 86 | 2.0 | 6.0 | 0.00 | 0.00 | 0.00 | 42 | 1016.8 |
| 20260510154424 | 79 | 150 | 1.0 | 3.0 | 0.00 | 0.00 | 0.00 | 45 | 1016.7 |
| 20260510153652 | 78 | 348 | 1.0 | 4.0 | 0.00 | 0.00 | 0.00 | 42 | 1016.8 |
| 20260510153410 | 78 | 205 | 2.0 | 6.0 | 0.00 | 0.00 | 0.00 | 44 | 1016.8 |
| 20260510152859 | 78 | 355 | 2.0 | 6.0 | 0.00 | 0.00 | 0.00 | 43 | 1016.8 |
| 20260510152133 | 78 | 284 | 1.0 | 3.0 | 0.00 | 0.00 | 0.00 | 46 | 1016.8 |
| 20260510151626 | 77 | 86 | 1.0 | 6.0 | 0.00 | 0.00 | 0.00 | 48 | 1016.7 |
| 20260510151121 | 77 | 335 | 2.0 | 6.0 | 0.00 | 0.00 | 0.00 | 46 | 1016.7 |
| 20260510150615 | 76 | 5 | 2.0 | 4.0 | 0.00 | 0.00 | 0.00 | 47 | 1016.7 |
| 20260510150109 | 76 | 355 | 2.0 | 4.0 | 0.00 | 0.00 | 0.00 | 50 | 1016.8 |
| 20260510145603 | 76 | 15 | 2.0 | 5.0 | 0.00 | 0.00 | 0.00 | 47 | 1016.8 |
| 20260510145324 | 75 | 355 | 2.0 | 5.0 | 0.00 | 0.00 | 0.00 | 52 | 1016.7 |
| 20260510144551 | 75 | 339 | 2.0 | 5.0 | 0.00 | 0.00 | 0.00 | 54 | 1016.8 |
| 20260510144044 | 75 | 170 | 2.0 | 4.0 | 0.00 | 0.00 | 0.00 | 55 | 1016.8 |
| 20260510143538 | 74 | 342 | 2.0 | 6.0 | 0.00 | 0.00 | 0.00 | 55 | 1016.8 |
| 20260510143033 | 74 | 321 | 2.0 | 6.0 | 0.00 | 0.00 | 0.00 | 57 | 1016.7 |
| 20260510142527 | 73 | 350 | 2.0 | 5.0 | 0.00 | 0.00 | 0.00 | 59 | 1016.7 |
| 20260510142021 | 73 | 355 | 2.0 | 4.0 | 0.00 | 0.00 | 0.00 | 60 | 1016.7 |
| 20260510141516 | 72 | 9 | 1.0 | 3.0 | 0.00 | 0.00 | 0.00 | 64 | 1016.7 |
| 20260510141008 | 71 | 355 | 1.0 | 4.0 | 0.00 | 0.00 | 0.00 | 67 | 1016.8 |
| 20260510140503 | 71 | 67 | 2.0 | 4.0 | 0.00 | 0.00 | 0.00 | 68 | 1016.7 |
| 20260510135957 | 70 | 351 | 2.0 | 5.0 | 0.00 | 0.00 | 0.00 | 69 | 1016.6 |
| 20260510135451 | 70 | 350 | 1.0 | 5.0 | 0.00 | 0.00 | 0.00 | 73 | 1016.7 |
| 20260510134945 | 69 | 336 | 1.0 | 4.0 | 0.00 | 0.00 | 0.00 | 74 | 1016.7 |
| 20260510134439 | 68 | 346 | 2.0 | 4.0 | 0.00 | 0.00 | 0.00 | 77 | 1016.8 |
| 20260510134151 | 68 | 344 | 2.0 | 4.0 | 0.00 | 0.00 | 0.00 | 80 | 1016.8 |
| 20260510133427 | 67 | 327 | 2.0 | 4.0 | 0.00 | 0.00 | 0.00 | 85 | 1016.8 |
| 20260510132920 | 66 | 333 | 2.0 | 3.0 | 0.00 | 0.00 | 0.00 | 87 | 1016.6 |
| 20260510132641 | 65 | 335 | 1.0 | 4.0 | 0.00 | 0.00 | 0.00 | 90 | 1016.6 |
| 20260510131908 | 65 | 333 | 1.0 | 4.0 | 0.00 | 0.00 | 0.00 | 92 | 1016.6 |
| 20260510131402 | 65 | 313 | 1.0 | 3.0 | 0.00 | 0.00 | 0.00 | 94 | 1016.7 |
| 20260510130857 | 64 | 313 | 1.0 | 3.0 | 0.00 | 0.00 | 0.00 | 94 | 1016.6 |
| 20260510130351 | 64 | 313 | 1.0 | 3.0 | 0.00 | 0.00 | 0.00 | 94 | 1016.7 |
| 20260510125844 | 64 | 313 | 0.0 | 3.0 | 0.00 | 0.00 | 0.00 | 94 | 1016.6 |
| 20260510125339 | 63 | 298 | 1.0 | 4.0 | 0.00 | 0.00 | 0.00 | 94 | 1016.5 |
| 20260510124832 | 63 | 298 | 1.0 | 4.0 | 0.00 | 0.00 | 0.00 | 95 | 1016.6 |
| 20260510124327 | 63 | 296 | 1.0 | 2.0 | 0.00 | 0.00 | 0.00 | 95 | 1016.5 |
| 20260510123821 | 62 | 296 | 1.0 | 3.0 | 0.00 | 0.00 | 0.00 | 95 | 1016.5 |
| 20260510123533 | 62 | 296 | 1.0 | 3.0 | 0.00 | 0.00 | 0.00 | 95 | 1016.4 |
| 20260510122808 | 62 | 296 | 1.0 | 3.0 | 0.00 | 0.00 | 0.00 | 94 | 1016.3 |
| 20260510122306 | 61 | 296 | 2.0 | 3.0 | 0.00 | 0.00 | 0.00 | 94 | 1016.2 |
| 20260510121757 | 61 | 291 | 1.0 | 3.0 | 0.00 | 0.00 | 0.00 | 94 | 1016.2 |
| 20260510121251 | 61 | 290 | 0.0 | 3.0 | 0.00 | 0.00 | 0.00 | 94 | 1016.1 |
| 20260510120744 | 60 | 267 | 0.0 | 0.0 | 0.00 | 0.00 | 0.00 | 94 | 1016.1 |
| 20260510120239 | 59 | 267 | 0.0 | 0.0 | 0.00 | 0.00 | 0.00 | 94 | 1016.1 |
| 20260510115733 | 59 | 266 | 0.0 | 0.0 | 0.00 | 0.00 | 0.00 | 94 | 1016.0 |
| 20260510115227 | 58 | 266 | 0.0 | 0.0 | 0.00 | 0.00 | 0.00 | 93 | 1015.9 |
| 20260510114721 | 58 | 266 | 0.0 | 0.0 | 0.00 | 0.00 | 0.00 | 93 | 1015.8 |
| 20260510114214 | 58 | 266 | 0.0 | 0.0 | 0.00 | 0.00 | 0.00 | 92 | 1015.8 |
| 20260510113708 | 58 | 266 | 0.0 | 0.0 | 0.00 | 0.00 | 0.00 | 92 | 1015.7 |
| 20260510113204 | 58 | 266 | 0.0 | 0.0 | 0.00 | 0.00 | 0.00 | 92 | 1015.6 |
| 20260510112657 | 58 | 266 | 0.0 | 0.0 | 0.00 | 0.00 | 0.00 | 92 | 1015.4 |
| 20260510112151 | 58 | 266 | 0.0 | 0.0 | 0.00 | 0.00 | 0.00 | 92 | 1015.3 |
| 20260510111645 | 58 | 266 | 0.0 | 0.0 | 0.00 | 0.00 | 0.00 | 92 | 1015.3 |
| 20260510111139 | 58 | 266 | 0.0 | 0.0 | 0.00 | 0.00 | 0.00 | 92 | 1015.3 |
| 20260510110633 | 58 | 266 | 0.0 | 0.0 | 0.00 | 0.00 | 0.00 | 92 | 1015.3 |
| 20260510110347 | 58 | 266 | 0.0 | 0.0 | 0.00 | 0.00 | 0.00 | 92 | 1015.2 |
| 20260510105621 | 58 | 266 | 0.0 | 0.0 | 0.00 | 0.00 | 0.00 | 92 | 1015.1 |
| 20260510105115 | 58 | 266 | 0.0 | 0.0 | 0.00 | 0.00 | 0.00 | 92 | 1015.1 |
| 20260510104608 | 58 | 266 | 0.0 | 0.0 | 0.00 | 0.00 | 0.00 | 92 | 1015.1 |
| 20260510104326 | 58 | 266 | 0.0 | 0.0 | 0.00 | 0.00 | 0.00 | 92 | 1015.0 |
| 20260510103603 | 58 | 266 | 0.0 | 0.0 | 0.00 | 0.00 | 0.00 | 92 | 1014.9 |
| 20260510103100 | 58 | 266 | 0.0 | 0.0 | 0.00 | 0.00 | 0.00 | 92 | 1014.9 |
| 20260510102847 | 59 | 266 | 0.0 | 0.0 | 0.00 | 0.00 | 0.00 | 92 | 1014.7 |
| 20260510102101 | 59 | 266 | 0.0 | 0.0 | 0.00 | 0.00 | 0.00 | 92 | 1014.7 |
| 20260510101601 | 59 | 266 | 0.0 | 0.0 | 0.00 | 0.00 | 0.00 | 92 | 1014.7 |
| 20260510101101 | 59 | 266 | 0.0 | 0.0 | 0.00 | 0.00 | 0.00 | 92 | 1014.6 |
| 20260510100601 | 59 | 266 | 0.0 | 0.0 | 0.00 | 0.00 | 0.00 | 92 | 1014.5 |
| 20260510100057 | 59 | 266 | 0.0 | 0.0 | 0.00 | 0.00 | 0.00 | 92 | 1014.4 |
| 20260510095820 | 59 | 266 | 0.0 | 0.0 | 0.00 | 0.00 | 0.00 | 92 | 1014.3 |
| 20260510095057 | 59 | 266 | 0.0 | 0.0 | 0.00 | 0.00 | 0.00 | 92 | 1014.3 |
| 20260510094820 | 59 | 266 | 0.0 | 0.0 | 0.00 | 0.00 | 0.00 | 91 | 1014.3 |
| 20260510093827 | 60 | 266 | 0.0 | 0.0 | 0.00 | 0.00 | 0.00 | 91 | 1014.1 |
| 20260510093056 | 60 | 266 | 0.0 | 0.0 | 0.00 | 0.00 | 0.00 | 91 | 1014.1 |
| 20260510092556 | 60 | 266 | 0.0 | 0.0 | 0.00 | 0.00 | 0.00 | 91 | 1014.3 |
| 20260510092100 | 60 | 266 | 0.0 | 0.0 | 0.00 | 0.00 | 0.00 | 91 | 1014.0 |
| 20260510091557 | 60 | 266 | 0.0 | 0.0 | 0.00 | 0.00 | 0.00 | 91 | 1013.9 |
| 20260510091057 | 60 | 266 | 0.0 | 0.0 | 0.00 | 0.00 | 0.00 | 91 | 1013.8 |
| 20260510090554 | 60 | 266 | 0.0 | 0.0 | 0.00 | 0.00 | 0.00 | 91 | 1013.8 |
| 20260510090055 | 60 | 266 | 0.0 | 0.0 | 0.00 | 0.00 | 0.00 | 91 | 1013.7 |
| 20260510085553 | 60 | 266 | 0.0 | 0.0 | 0.00 | 0.00 | 0.00 | 91 | 1013.6 |
| 20260510085053 | 60 | 266 | 0.0 | 0.0 | 0.00 | 0.00 | 0.00 | 91 | 1013.5 |
| 20260510084550 | 61 | 266 | 0.0 | 0.0 | 0.00 | 0.00 | 0.00 | 91 | 1013.4 |
| 20260510084051 | 61 | 266 | 0.0 | 0.0 | 0.00 | 0.00 | 0.00 | 91 | 1013.4 |
| 20260510083813 | 61 | 266 | 0.0 | 0.0 | 0.00 | 0.00 | 0.00 | 91 | 1013.3 |
| 20260510083048 | 61 | 266 | 0.0 | 0.0 | 0.00 | 0.00 | 0.00 | 91 | 1013.2 |
| 20260510082546 | 61 | 266 | 0.0 | 0.0 | 0.00 | 0.00 | 0.00 | 91 | 1013.2 |
| 20260510082047 | 61 | 266 | 0.0 | 0.0 | 0.00 | 0.00 | 0.00 | 91 | 1013.2 |
| 20260510081544 | 61 | 266 | 0.0 | 1.0 | 0.00 | 0.00 | 0.00 | 91 | 1013.1 |
| 20260510081042 | 61 | 266 | 0.0 | 1.0 | 0.00 | 0.00 | 0.00 | 91 | 1013.0 |
| 20260510080542 | 61 | 266 | 0.0 | 1.0 | 0.00 | 0.00 | 0.00 | 90 | 1013.0 |
| 20260510080043 | 61 | 266 | 0.0 | 1.0 | 0.00 | 0.00 | 0.00 | 90 | 1013.0 |
| 20260510075543 | 61 | 266 | 0.0 | 0.0 | 0.00 | 0.00 | 0.00 | 90 | 1013.0 |
| 20260510075043 | 61 | 266 | 0.0 | 0.0 | 0.00 | 0.00 | 0.00 | 90 | 1013.0 |
| 20260510074805 | 61 | 266 | 0.0 | 0.0 | 0.00 | 0.00 | 0.00 | 90 | 1013.0 |
| 20260510074044 | 62 | 266 | 0.0 | 0.0 | 0.00 | 0.00 | 0.00 | 90 | 1013.0 |
| 20260510073544 | 62 | 266 | 0.0 | 0.0 | 0.00 | 0.00 | 0.00 | 90 | 1013.0 |
| 20260510073044 | 62 | 266 | 0.0 | 0.0 | 0.00 | 0.00 | 0.00 | 90 | 1013.1 |
| 20260510072544 | 62 | 266 | 0.0 | 0.0 | 0.00 | 0.00 | 0.00 | 90 | 1013.0 |
| 20260510072259 | 62 | 266 | 0.0 | 0.0 | 0.00 | 0.00 | 0.00 | 90 | 1013.0 |
| 20260510071540 | 62 | 266 | 0.0 | 0.0 | 0.00 | 0.00 | 0.00 | 90 | 1013.0 |
| 20260510071040 | 62 | 266 | 0.0 | 0.0 | 0.00 | 0.00 | 0.00 | 90 | 1012.9 |
| 20260510070539 | 62 | 266 | 0.0 | 0.0 | 0.00 | 0.00 | 0.00 | 90 | 1012.9 |
| 20260510070038 | 62 | 266 | 0.0 | 0.0 | 0.00 | 0.00 | 0.00 | 89 | 1013.0 |
| 20260510065538 | 62 | 266 | 0.0 | 0.0 | 0.00 | 0.00 | 0.00 | 89 | 1013.0 |
| 20260510065038 | 62 | 266 | 0.0 | 0.0 | 0.00 | 0.00 | 0.00 | 89 | 1012.9 |
| 20260510064538 | 62 | 266 | 0.0 | 0.0 | 0.00 | 0.00 | 0.00 | 89 | 1013.0 |
| 20260510064302 | 62 | 266 | 0.0 | 0.0 | 0.00 | 0.00 | 0.00 | 89 | 1013.0 |
| 20260510063535 | 62 | 266 | 0.0 | 0.0 | 0.00 | 0.00 | 0.00 | 89 | 1013.1 |
| 20260510063035 | 62 | 266 | 0.0 | 0.0 | 0.00 | 0.00 | 0.00 | 88 | 1013.1 |
| 20260510062535 | 62 | 266 | 0.0 | 0.0 | 0.00 | 0.00 | 0.00 | 88 | 1013.1 |
| 20260510062034 | 62 | 266 | 0.0 | 0.0 | 0.00 | 0.00 | 0.00 | 89 | 1013.0 |
| 20260510061534 | 62 | 266 | 0.0 | 0.0 | 0.00 | 0.00 | 0.00 | 88 | 1013.0 |
| 20260510061255 | 62 | 266 | 0.0 | 0.0 | 0.00 | 0.00 | 0.00 | 88 | 1013.0 |
| 20260510060535 | 62 | 266 | 0.0 | 0.0 | 0.00 | 0.00 | 0.00 | 88 | 1012.9 |
| 20260510060035 | 63 | 266 | 0.0 | 0.0 | 0.00 | 0.00 | 0.00 | 88 | 1013.0 |
| 20260510055535 | 63 | 266 | 0.0 | 0.0 | 0.00 | 0.00 | 0.00 | 88 | 1013.0 |
| 20260510055032 | 63 | 266 | 0.0 | 0.0 | 0.00 | 0.00 | 0.00 | 88 | 1013.1 |
| 20260510054531 | 63 | 266 | 0.0 | 0.0 | 0.00 | 0.00 | 0.00 | 88 | 1013.0 |
| 20260510054029 | 63 | 266 | 0.0 | 0.0 | 0.00 | 0.00 | 0.00 | 88 | 1013.0 |
| 20260510053744 | 63 | 266 | 0.0 | 0.0 | 0.00 | 0.00 | 0.00 | 88 | 1013.2 |
| 20260510053026 | 63 | 266 | 0.0 | 0.0 | 0.00 | 0.00 | 0.00 | 87 | 1013.2 |
| 20260510052526 | 63 | 266 | 0.0 | 0.0 | 0.00 | 0.00 | 0.00 | 87 | 1013.2 |
| 20260510052247 | 63 | 266 | 0.0 | 0.0 | 0.00 | 0.00 | 0.00 | 87 | 1013.1 |
| 20260510051524 | 63 | 266 | 0.0 | 0.0 | 0.00 | 0.00 | 0.00 | 87 | 1013.1 |
| 20260510051022 | 64 | 266 | 0.0 | 1.0 | 0.00 | 0.00 | 0.00 | 87 | 1013.1 |
| 20260510050520 | 64 | 266 | 0.0 | 1.0 | 0.00 | 0.00 | 0.00 | 87 | 1013.1 |
| 20260510050018 | 64 | 266 | 0.0 | 0.0 | 0.00 | 0.00 | 0.00 | 87 | 1013.1 |
| 20260510045516 | 64 | 266 | 0.0 | 0.0 | 0.00 | 0.00 | 0.00 | 87 | 1013.1 |
| 20260510045016 | 64 | 266 | 0.0 | 1.0 | 0.00 | 0.00 | 0.00 | 86 | 1013.2 |
| 20260510044514 | 64 | 266 | 0.0 | 1.0 | 0.00 | 0.00 | 0.00 | 86 | 1013.1 |
| 20260510044012 | 64 | 266 | 0.0 | 0.0 | 0.00 | 0.00 | 0.00 | 86 | 1013.0 |
| 20260510043739 | 64 | 266 | 0.0 | 0.0 | 0.00 | 0.00 | 0.00 | 86 | 1013.1 |
| 20260510043005 | 65 | 266 | 0.0 | 0.0 | 0.00 | 0.00 | 0.00 | 86 | 1013.2 |
| 20260510042738 | 65 | 266 | 0.0 | 0.0 | 0.00 | 0.00 | 0.00 | 86 | 1013.1 |
| 20260510042004 | 65 | 266 | 0.0 | 0.0 | 0.00 | 0.00 | 0.00 | 86 | 1013.2 |
| 20260510041505 | 65 | 266 | 0.0 | 0.0 | 0.00 | 0.00 | 0.00 | 86 | 1013.2 |
| 20260510041006 | 65 | 266 | 0.0 | 0.0 | 0.00 | 0.00 | 0.00 | 86 | 1013.1 |
| 20260510040502 | 65 | 266 | 0.0 | 1.0 | 0.00 | 0.00 | 0.00 | 86 | 1013.2 |
| 20260510040002 | 65 | 266 | 0.0 | 1.0 | 0.00 | 0.00 | 0.00 | 86 | 1013.3 |
| 20260510035721 | 65 | 266 | 0.0 | 1.0 | 0.00 | 0.00 | 0.00 | 85 | 1013.3 |
| 20260510035001 | 65 | 266 | 1.0 | 3.0 | 0.00 | 0.00 | 0.00 | 85 | 1013.3 |
| 20260510034721 | 65 | 266 | 1.0 | 3.0 | 0.00 | 0.00 | 0.00 | 85 | 1013.3 |
| 20260510034001 | 66 | 270 | 0.0 | 1.0 | 0.00 | 0.00 | 0.00 | 85 | 1013.2 |
| 20260510033501 | 66 | 270 | 0.0 | 2.0 | 0.00 | 0.00 | 0.00 | 86 | 1013.3 |
| 20260510033001 | 66 | 270 | 0.0 | 2.0 | 0.00 | 0.00 | 0.00 | 86 | 1013.4 |
| 20260510031956 | 66 | 269 | 0.0 | 2.0 | 0.00 | 0.00 | 0.00 | 85 | 1013.4 |
| 20260510031456 | 66 | 269 | 1.0 | 3.0 | 0.00 | 0.00 | 0.00 | 85 | 1013.3 |
| 20260510030954 | 66 | 269 | 1.0 | 3.0 | 0.00 | 0.00 | 0.00 | 85 | 1013.2 |
| 20260510030455 | 66 | 268 | 1.0 | 3.0 | 0.00 | 0.00 | 0.00 | 85 | 1013.3 |
| 20260510025954 | 66 | 268 | 1.0 | 3.0 | 0.00 | 0.00 | 0.00 | 85 | 1013.3 |
| 20260510025452 | 66 | 268 | 1.0 | 3.0 | 0.00 | 0.00 | 0.00 | 85 | 1013.3 |
| 20260510024953 | 66 | 268 | 1.0 | 3.0 | 0.00 | 0.00 | 0.00 | 85 | 1013.3 |
| 20260510024451 | 66 | 267 | 2.0 | 4.0 | 0.00 | 0.00 | 0.00 | 85 | 1013.2 |
| 20260510023950 | 66 | 262 | 1.0 | 4.0 | 0.00 | 0.00 | 0.00 | 84 | 1013.2 |
| 20260510023707 | 66 | 248 | 1.0 | 3.0 | 0.00 | 0.00 | 0.00 | 84 | 1013.3 |
| 20260510022951 | 66 | 246 | 1.0 | 2.0 | 0.00 | 0.00 | 0.00 | 84 | 1013.3 |
| 20260510022445 | 66 | 246 | 0.0 | 2.0 | 0.00 | 0.00 | 0.00 | 84 | 1013.2 |
| 20260510021942 | 66 | 245 | 0.0 | 2.0 | 0.00 | 0.00 | 0.00 | 83 | 1013.1 |
| 20260510021658 | 66 | 245 | 0.0 | 2.0 | 0.00 | 0.00 | 0.00 | 82 | 1013.2 |
| 20260510020940 | 66 | 254 | 0.0 | 1.0 | 0.00 | 0.00 | 0.00 | 82 | 1013.1 |
| 20260510020440 | 66 | 254 | 0.0 | 2.0 | 0.00 | 0.00 | 0.00 | 81 | 1013.1 |
| 20260510015937 | 66 | 254 | 1.0 | 2.0 | 0.00 | 0.00 | 0.00 | 81 | 1013.0 |
| 20260510015437 | 67 | 254 | 1.0 | 3.0 | 0.00 | 0.00 | 0.00 | 81 | 1012.9 |
| 20260510014934 | 67 | 254 | 1.0 | 3.0 | 0.00 | 0.00 | 0.00 | 80 | 1012.9 |
| 20260510014433 | 67 | 254 | 0.0 | 1.0 | 0.00 | 0.00 | 0.00 | 80 | 1012.9 |
| 20260510013930 | 67 | 254 | 0.0 | 0.0 | 0.00 | 0.00 | 0.00 | 80 | 1012.8 |
| 20260510013428 | 67 | 254 | 0.0 | 2.0 | 0.00 | 0.00 | 0.00 | 79 | 1012.7 |
| 20260510012926 | 67 | 254 | 1.0 | 2.0 | 0.00 | 0.00 | 0.00 | 79 | 1012.6 |
| 20260510012424 | 67 | 254 | 1.0 | 2.0 | 0.00 | 0.00 | 0.00 | 78 | 1012.6 |
| 20260510012140 | 68 | 254 | 0.0 | 0.0 | 0.00 | 0.00 | 0.00 | 78 | 1012.5 |
| 20260510011421 | 68 | 254 | 0.0 | 0.0 | 0.00 | 0.00 | 0.00 | 77 | 1012.3 |
| 20260510010918 | 68 | 254 | 0.0 | 0.0 | 0.00 | 0.00 | 0.00 | 77 | 1012.3 |
| 20260510010416 | 68 | 254 | 0.0 | 2.0 | 0.00 | 0.00 | 0.00 | 77 | 1012.2 |
| 20260510010139 | 69 | 254 | 0.0 | 2.0 | 0.00 | 0.00 | 0.00 | 76 | 1012.1 |
| 20260510005414 | 69 | 254 | 0.0 | 1.0 | 0.00 | 0.00 | 0.00 | 75 | 1012.1 |
| 20260510004914 | 69 | 254 | 0.0 | 0.0 | 0.00 | 0.00 | 0.00 | 75 | 1012.0 |
| 20260510004624 | 69 | 254 | 0.0 | 0.0 | 0.00 | 0.00 | 0.00 | 75 | 1012.1 |
| 20260510003356 | 70 | 254 | 0.0 | 0.0 | 0.00 | 0.00 | 0.00 | 74 | 1011.8 |
| 20260510002849 | 70 | 254 | 0.0 | 2.0 | 0.00 | 0.00 | 0.00 | 74 | 1011.7 |
| 20260510002343 | 70 | 254 | 1.0 | 2.0 | 0.00 | 0.00 | 0.00 | 74 | 1011.6 |
| 20260510001838 | 70 | 254 | 2.0 | 4.0 | 0.00 | 0.00 | 0.00 | 74 | 1011.6 |
| 20260510001332 | 70 | 254 | 2.0 | 4.0 | 0.00 | 0.00 | 0.00 | 73 | 1011.4 |
| 20260510000826 | 70 | 273 | 2.0 | 4.0 | 0.00 | 0.00 | 0.00 | 73 | 1011.4 |
| 20260510000321 | 71 | 273 | 2.0 | 4.0 | 0.00 | 0.00 | 0.00 | 73 | 1011.3 |
| 20260509235814 | 71 | 269 | 2.0 | 4.0 | 0.00 | 0.00 | 0.00 | 73 | 1011.3 |
| 20260509235307 | 71 | 290 | 1.0 | 3.0 | 0.00 | 0.00 | 0.00 | 72 | 1011.3 |
| 20260509234802 | 71 | 290 | 0.0 | 3.0 | 0.00 | 0.00 | 0.00 | 72 | 1011.3 |
| 20260509234256 | 71 | 290 | 1.0 | 3.0 | 0.00 | 0.00 | 0.00 | 72 | 1011.4 |
| 20260509233749 | 71 | 290 | 2.0 | 4.0 | 0.00 | 0.00 | 0.00 | 71 | 1011.3 |
| 20260509233245 | 71 | 290 | 2.0 | 4.0 | 0.00 | 0.00 | 0.00 | 71 | 1011.3 |
| 20260509232737 | 71 | 261 | 2.0 | 5.0 | 0.00 | 0.00 | 0.00 | 71 | 1011.3 |
| 20260509232232 | 72 | 267 | 2.0 | 5.0 | 0.00 | 0.00 | 0.00 | 71 | 1011.2 |
| 20260509231725 | 72 | 251 | 1.0 | 3.0 | 0.00 | 0.00 | 0.00 | 71 | 1011.3 |
| 20260509231220 | 72 | 253 | 1.0 | 3.0 | 0.00 | 0.00 | 0.00 | 71 | 1011.2 |
| 20260509230933 | 72 | 253 | 0.0 | 3.0 | 0.00 | 0.00 | 0.00 | 71 | 1011.2 |
| 20260509230207 | 72 | 252 | 1.0 | 2.0 | 0.00 | 0.00 | 0.00 | 70 | 1011.2 |
| 20260509225702 | 72 | 252 | 1.0 | 5.0 | 0.00 | 0.00 | 0.00 | 70 | 1011.1 |
| 20260509225155 | 72 | 208 | 2.0 | 5.0 | 0.00 | 0.00 | 0.00 | 71 | 1011.1 |
| 20260509224651 | 72 | 239 | 2.0 | 4.0 | 0.00 | 0.00 | 0.00 | 71 | 1011.0 |
| 20260509224144 | 72 | 263 | 2.0 | 7.0 | 0.00 | 0.00 | 0.00 | 70 | 1010.9 |
| 20260509223638 | 72 | 271 | 4.0 | 9.0 | 0.00 | 0.00 | 0.00 | 69 | 1010.9 |
| 20260509223132 | 72 | 268 | 4.0 | 9.0 | 0.00 | 0.00 | 0.00 | 70 | 1010.9 |
| 20260509222626 | 72 | 248 | 3.0 | 7.0 | 0.00 | 0.00 | 0.00 | 70 | 1010.9 |
| 20260509222120 | 73 | 238 | 3.0 | 7.0 | 0.00 | 0.00 | 0.00 | 70 | 1010.7 |
| 20260509221831 | 73 | 272 | 3.0 | 7.0 | 0.00 | 0.00 | 0.00 | 70 | 1010.6 |
| 20260509221107 | 73 | 290 | 3.0 | 7.0 | 0.00 | 0.00 | 0.00 | 70 | 1010.8 |
| 20260509220602 | 73 | 259 | 3.0 | 7.0 | 0.00 | 0.00 | 0.00 | 70 | 1010.7 |
| 20260509220056 | 73 | 278 | 3.0 | 6.0 | 0.00 | 0.00 | 0.00 | 70 | 1010.7 |
| 20260509215808 | 73 | 269 | 3.0 | 8.0 | 0.00 | 0.00 | 0.00 | 71 | 1010.5 |
| 20260509215043 | 73 | 254 | 3.0 | 8.0 | 0.00 | 0.00 | 0.00 | 72 | 1010.6 |
| 20260509214538 | 73 | 260 | 2.0 | 7.0 | 0.00 | 0.00 | 0.00 | 72 | 1010.5 |
| 20260509214031 | 73 | 239 | 2.0 | 6.0 | 0.00 | 0.00 | 0.00 | 71 | 1010.5 |
| 20260509213527 | 73 | 281 | 3.0 | 6.0 | 0.00 | 0.00 | 0.00 | 71 | 1010.5 |
| 20260509213021 | 73 | 221 | 3.0 | 7.0 | 0.00 | 0.00 | 0.00 | 71 | 1010.5 |
| 20260509212007 | 73 | 282 | 3.0 | 8.0 | 0.00 | 0.00 | 0.00 | 71 | 1010.5 |
| 20260509211724 | 73 | 53 | 4.0 | 8.0 | 0.00 | 0.00 | 0.00 | 71 | 1010.6 |
| 20260509211226 | 73 | 311 | 4.0 | 9.0 | 0.00 | 0.00 | 0.00 | 70 | 1010.7 |
| 20260509210449 | 73 | 284 | 3.0 | 9.0 | 0.00 | 0.00 | 0.00 | 70 | 1010.7 |
| 20260509205944 | 73 | 236 | 2.0 | 8.0 | 0.00 | 0.00 | 0.00 | 70 | 1010.8 |
| 20260509205438 | 73 | 262 | 2.0 | 7.0 | 0.00 | 0.00 | 0.00 | 70 | 1010.7 |
| 20260509205150 | 73 | 275 | 3.0 | 7.0 | 0.00 | 0.00 | 0.00 | 70 | 1010.7 |
| 20260509204425 | 73 | 240 | 3.0 | 7.0 | 0.00 | 0.00 | 0.00 | 70 | 1010.9 |
| 20260509203920 | 73 | 265 | 3.0 | 9.0 | 0.00 | 0.00 | 0.00 | 70 | 1010.7 |
| 20260509203415 | 73 | 244 | 3.0 | 9.0 | 0.00 | 0.00 | 0.00 | 69 | 1010.7 |
| 20260509203137 | 73 | 249 | 3.0 | 7.0 | 0.00 | 0.00 | 0.00 | 70 | 1010.8 |
| 20260509202403 | 73 | 242 | 4.0 | 8.0 | 0.00 | 0.00 | 0.00 | 70 | 1011.1 |
| 20260509201857 | 73 | 268 | 3.0 | 8.0 | 0.00 | 0.00 | 0.00 | 70 | 1010.9 |
| 20260509201350 | 73 | 269 | 2.0 | 7.0 | 0.00 | 0.00 | 0.00 | 70 | 1010.9 |
| 20260509200844 | 73 | 229 | 2.0 | 7.0 | 0.00 | 0.00 | 0.00 | 69 | 1010.9 |
| 20260509200338 | 73 | 250 | 3.0 | 6.0 | 0.00 | 0.00 | 0.00 | 69 | 1011.1 |
| 20260509195837 | 73 | 242 | 3.0 | 6.0 | 0.00 | 0.00 | 0.00 | 70 | 1011.0 |
| 20260509195337 | 73 | 276 | 3.0 | 6.0 | 0.00 | 0.00 | 0.00 | 70 | 1011.0 |
| 20260509194834 | 73 | 270 | 3.0 | 7.0 | 0.00 | 0.00 | 0.00 | 70 | 1010.9 |
| 20260509194557 | 73 | 223 | 3.0 | 7.0 | 0.00 | 0.00 | 0.00 | 70 | 1010.9 |
| 20260509193832 | 72 | 286 | 2.0 | 7.0 | 0.00 | 0.00 | 0.00 | 70 | 1011.0 |
| 20260509193332 | 72 | 271 | 2.0 | 9.0 | 0.00 | 0.00 | 0.00 | 70 | 1011.0 |
| 20260509192832 | 72 | 254 | 3.0 | 9.0 | 0.00 | 0.00 | 0.00 | 69 | 1011.0 |
| 20260509192332 | 72 | 283 | 2.0 | 6.0 | 0.00 | 0.00 | 0.00 | 72 | 1011.3 |
| 20260509191830 | 72 | 234 | 2.0 | 7.0 | 0.00 | 0.00 | 0.00 | 71 | 1011.3 |
| 20260509191330 | 72 | 252 | 2.0 | 8.0 | 0.00 | 0.00 | 0.00 | 69 | 1011.2 |
| 20260509190830 | 72 | 355 | 2.0 | 8.0 | 0.00 | 0.00 | 0.00 | 68 | 1011.1 |
| 20260509190330 | 72 | 194 | 3.0 | 6.0 | 0.00 | 0.00 | 0.00 | 68 | 1011.2 |
| 20260509185329 | 72 | 235 | 2.0 | 6.0 | 0.00 | 0.00 | 0.00 | 69 | 1011.4 |
| 20260509184829 | 72 | 267 | 3.0 | 7.0 | 0.00 | 0.00 | 0.00 | 68 | 1011.5 |
| 20260509184328 | 72 | 240 | 3.0 | 8.0 | 0.00 | 0.00 | 0.00 | 68 | 1011.5 |
| 20260509184049 | 72 | 276 | 2.0 | 8.0 | 0.00 | 0.00 | 0.00 | 68 | 1011.4 |
| 20260509183324 | 72 | 225 | 2.0 | 6.0 | 0.00 | 0.00 | 0.00 | 68 | 1011.5 |
| 20260509182824 | 72 | 256 | 2.0 | 6.0 | 0.00 | 0.00 | 0.00 | 67 | 1011.5 |
| 20260509182323 | 72 | 242 | 2.0 | 7.0 | 0.00 | 0.00 | 0.00 | 66 | 1011.4 |
| 20260509181822 | 72 | 228 | 2.0 | 7.0 | 0.00 | 0.00 | 0.00 | 67 | 1011.5 |
| 20260509181322 | 72 | 261 | 2.0 | 7.0 | 0.00 | 0.00 | 0.00 | 68 | 1011.5 |
| 20260509180821 | 72 | 268 | 2.0 | 7.0 | 0.00 | 0.00 | 0.00 | 67 | 1011.6 |
| 20260509180040 | 72 | 300 | 3.0 | 6.0 | 0.00 | 0.00 | 0.00 | 68 | 1011.7 |
| 20260509175321 | 72 | 278 | 3.0 | 6.0 | 0.00 | 0.00 | 0.00 | 68 | 1011.7 |
| 20260509174820 | 72 | 283 | 2.0 | 6.0 | 0.00 | 0.00 | 0.00 | 71 | 1011.8 |
| 20260509174321 | 72 | 202 | 2.0 | 6.0 | 0.00 | 0.00 | 0.00 | 70 | 1011.7 |
| 20260509173818 | 72 | 211 | 2.0 | 6.0 | 0.00 | 0.00 | 0.00 | 69 | 1011.7 |
| 20260509173318 | 72 | 250 | 2.0 | 5.0 | 0.00 | 0.00 | 0.00 | 70 | 1011.7 |
| 20260509172818 | 72 | 263 | 2.0 | 5.0 | 0.00 | 0.00 | 0.00 | 70 | 1011.7 |
| 20260509172316 | 72 | 272 | 2.0 | 5.0 | 0.00 | 0.00 | 0.00 | 71 | 1011.6 |
| 20260509171814 | 71 | 242 | 2.0 | 5.0 | 0.00 | 0.00 | 0.00 | 70 | 1011.7 |
| 20260509171316 | 72 | 113 | 2.0 | 4.0 | 0.00 | 0.00 | 0.00 | 70 | 1011.9 |
| 20260509170814 | 71 | 268 | 2.0 | 4.0 | 0.00 | 0.00 | 0.00 | 72 | 1012.0 |
| 20260509170315 | 71 | 274 | 2.0 | 5.0 | 0.00 | 0.00 | 0.00 | 73 | 1012.1 |
| 20260509165814 | 71 | 302 | 2.0 | 5.0 | 0.00 | 0.00 | 0.00 | 76 | 1012.1 |
| 20260509165315 | 70 | 279 | 2.0 | 4.0 | 0.00 | 0.00 | 0.00 | 74 | 1012.2 |
| 20260509164814 | 70 | 238 | 2.0 | 4.0 | 0.00 | 0.00 | 0.00 | 73 | 1012.2 |
| 20260509164315 | 70 | 249 | 2.0 | 4.0 | 0.00 | 0.00 | 0.00 | 73 | 1012.3 |
| 20260509163809 | 70 | 165 | 3.0 | 6.0 | 0.00 | 0.00 | 0.00 | 73 | 1012.4 |
| 20260509163309 | 70 | 271 | 3.0 | 8.0 | 0.00 | 0.00 | 0.00 | 74 | 1012.6 |
| 20260509162809 | 70 | 273 | 3.0 | 8.0 | 0.00 | 0.00 | 0.00 | 75 | 1012.6 |
| 20260509162309 | 70 | 321 | 3.0 | 6.0 | 0.00 | 0.00 | 0.00 | 75 | 1012.7 |
| 20260509162032 | 70 | 305 | 2.0 | 5.0 | 0.00 | 0.00 | 0.00 | 75 | 1012.6 |
| 20260509161309 | 69 | 218 | 2.0 | 5.0 | 0.00 | 0.00 | 0.00 | 75 | 1012.8 |
| 20260509160809 | 69 | 150 | 3.0 | 5.0 | 0.00 | 0.00 | 0.00 | 78 | 1012.9 |